Year,Month,Day,Hour,Minute,Value (Times are PST for temperature in C)
2016,08,23,00,00,13.10
2016,08,23,00,01,13.10
2016,08,23,00,02,13.10
2016,08,23,00,03,13.10
2016,08,23,00,04,13.10
2016,08,23,00,05,13.10
2016,08,23,00,06,13.10
2016,08,23,00,07,13.10
2016,08,23,00,08,13.10
2016,08,23,00,09,13.00
2016,08,23,00,10,13.00
2016,08,23,00,11,13.00
2016,08,23,00,12,13.00
2016,08,23,00,13,13.00
2016,08,23,00,14,13.00
2016,08,23,00,15,13.00
2016,08,23,00,16,13.00
2016,08,23,00,17,13.00
2016,08,23,00,18,12.90
2016,08,23,00,19,12.90
2016,08,23,00,20,12.90
2016,08,23,00,21,12.90
2016,08,23,00,22,12.80
2016,08,23,00,23,12.80
2016,08,23,00,24,12.80
2016,08,23,00,25,12.80
2016,08,23,00,26,12.80
2016,08,23,00,27,12.80
2016,08,23,00,28,12.80
2016,08,23,00,29,12.70
2016,08,23,00,30,12.70
2016,08,23,00,31,12.70
2016,08,23,00,32,12.70
2016,08,23,00,33,12.70
2016,08,23,00,34,12.70
2016,08,23,00,35,12.70
2016,08,23,00,36,12.60
2016,08,23,00,37,12.60
2016,08,23,00,38,12.60
2016,08,23,00,39,12.60
2016,08,23,00,40,12.60
2016,08,23,00,41,12.60
2016,08,23,00,42,12.60
2016,08,23,00,43,12.60
2016,08,23,00,44,12.60
2016,08,23,00,45,12.60
2016,08,23,00,46,12.60
2016,08,23,00,47,12.60
2016,08,23,00,48,12.50
2016,08,23,00,49,12.50
2016,08,23,00,50,12.50
2016,08,23,00,51,12.50
2016,08,23,00,52,12.40
2016,08,23,00,53,12.40
2016,08,23,00,54,12.40
2016,08,23,00,55,12.40
2016,08,23,00,56,12.30
2016,08,23,00,57,12.30
2016,08,23,00,58,12.30
2016,08,23,00,59,12.30
2016,08,23,01,00,12.30
2016,08,23,01,01,12.30
2016,08,23,01,02,12.30
2016,08,23,01,03,12.20
2016,08,23,01,04,12.20
2016,08,23,01,05,12.20
2016,08,23,01,06,12.20
2016,08,23,01,07,12.20
2016,08,23,01,08,12.20
2016,08,23,01,09,12.20
2016,08,23,01,10,12.20
2016,08,23,01,11,12.20
2016,08,23,01,12,12.20
2016,08,23,01,13,12.20
2016,08,23,01,14,12.20
2016,08,23,01,15,12.20
2016,08,23,01,16,12.20
2016,08,23,01,17,12.20
2016,08,23,01,18,12.10
2016,08,23,01,19,12.10
2016,08,23,01,20,12.10
2016,08,23,01,21,12.10
2016,08,23,01,22,12.10
2016,08,23,01,23,12.10
2016,08,23,01,24,12.20
2016,08,23,01,25,12.20
2016,08,23,01,26,12.20
2016,08,23,01,27,12.20
2016,08,23,01,28,12.20
2016,08,23,01,29,12.20
2016,08,23,01,30,12.20
2016,08,23,01,31,12.20
2016,08,23,01,32,12.20
2016,08,23,01,33,12.20
2016,08,23,01,34,12.20
2016,08,23,01,35,12.20
2016,08,23,01,36,12.10
2016,08,23,01,37,12.10
2016,08,23,01,38,12.10
2016,08,23,01,39,12.10
2016,08,23,01,40,12.10
2016,08,23,01,41,12.10
2016,08,23,01,42,12.10
2016,08,23,01,43,12.10
2016,08,23,01,44,12.00
2016,08,23,01,45,12.00
2016,08,23,01,46,12.00
2016,08,23,01,47,11.90
2016,08,23,01,48,11.90
2016,08,23,01,49,11.90
2016,08,23,01,50,11.80
2016,08,23,01,51,11.80
2016,08,23,01,52,11.80
2016,08,23,01,53,11.70
2016,08,23,01,54,11.70
2016,08,23,01,55,11.70
2016,08,23,01,56,11.70
2016,08,23,01,57,11.70
2016,08,23,01,58,11.70
2016,08,23,01,59,11.60
2016,08,23,02,00,11.60
2016,08,23,02,01,11.60
2016,08,23,02,02,11.60
2016,08,23,02,03,11.60
2016,08,23,02,04,11.60
2016,08,23,02,05,11.60
2016,08,23,02,06,11.60
2016,08,23,02,07,11.60
2016,08,23,02,08,11.60
2016,08,23,02,09,11.50
2016,08,23,02,10,11.50
2016,08,23,02,11,11.50
2016,08,23,02,12,11.50
2016,08,23,02,13,11.50
2016,08,23,02,14,11.40
2016,08,23,02,15,11.40
2016,08,23,02,16,11.40
2016,08,23,02,17,11.40
2016,08,23,02,18,11.40
2016,08,23,02,19,11.40
2016,08,23,02,20,11.40
2016,08,23,02,21,11.40
2016,08,23,02,22,11.40
2016,08,23,02,23,11.40
2016,08,23,02,24,11.40
2016,08,23,02,25,11.40
2016,08,23,02,26,11.40
2016,08,23,02,27,11.30
2016,08,23,02,28,11.30
2016,08,23,02,29,11.30
2016,08,23,02,30,11.30
2016,08,23,02,31,11.30
2016,08,23,02,32,11.30
2016,08,23,02,33,11.30
2016,08,23,02,34,11.30
2016,08,23,02,35,11.30
2016,08,23,02,36,11.30
2016,08,23,02,37,11.30
2016,08,23,02,38,11.30
2016,08,23,02,39,11.30
2016,08,23,02,40,11.30
2016,08,23,02,41,11.30
2016,08,23,02,42,11.30
2016,08,23,02,43,11.20
2016,08,23,02,44,11.20
2016,08,23,02,45,11.20
2016,08,23,02,46,11.20
2016,08,23,02,47,11.20
2016,08,23,02,48,11.20
2016,08,23,02,49,11.20
2016,08,23,02,50,11.20
2016,08,23,02,51,11.20
2016,08,23,02,52,11.20
2016,08,23,02,53,11.20
2016,08,23,02,54,11.20
2016,08,23,02,55,11.20
2016,08,23,02,56,11.20
2016,08,23,02,57,11.20
2016,08,23,02,58,11.20
2016,08,23,02,59,11.20
2016,08,23,03,00,11.20
2016,08,23,03,01,11.20
2016,08,23,03,02,11.20
2016,08,23,03,03,11.20
2016,08,23,03,04,11.20
2016,08,23,03,05,11.20
2016,08,23,03,06,11.20
2016,08,23,03,07,11.20
2016,08,23,03,08,11.20
2016,08,23,03,09,11.10
2016,08,23,03,10,11.10
2016,08,23,03,11,11.10
2016,08,23,03,12,11.10
2016,08,23,03,13,11.10
2016,08,23,03,14,11.10
2016,08,23,03,15,11.00
2016,08,23,03,16,11.00
2016,08,23,03,17,11.00
2016,08,23,03,18,10.90
2016,08,23,03,19,10.90
2016,08,23,03,20,10.90
2016,08,23,03,21,10.90
2016,08,23,03,22,10.90
2016,08,23,03,23,10.90
2016,08,23,03,24,10.90
2016,08,23,03,25,10.90
2016,08,23,03,26,10.90
2016,08,23,03,27,10.80
2016,08,23,03,28,10.80
2016,08,23,03,29,10.80
2016,08,23,03,30,10.80
2016,08,23,03,31,10.80
2016,08,23,03,32,10.80
2016,08,23,03,33,10.80
2016,08,23,03,34,10.80
2016,08,23,03,35,10.80
2016,08,23,03,36,10.80
2016,08,23,03,37,10.90
2016,08,23,03,38,10.90
2016,08,23,03,39,10.90
2016,08,23,03,40,10.90
2016,08,23,03,41,11.00
2016,08,23,03,42,11.00
2016,08,23,03,43,11.00
2016,08,23,03,44,11.00
2016,08,23,03,45,11.00
2016,08,23,03,46,11.00
2016,08,23,03,47,11.10
2016,08,23,03,48,11.10
2016,08,23,03,49,11.10
2016,08,23,03,50,11.10
2016,08,23,03,51,11.10
2016,08,23,03,52,11.10
2016,08,23,03,53,11.10
2016,08,23,03,54,11.10
2016,08,23,03,55,11.10
2016,08,23,03,56,11.10
2016,08,23,03,57,11.10
2016,08,23,03,58,11.00
2016,08,23,03,59,11.00
2016,08,23,04,00,11.00
2016,08,23,04,01,11.00
2016,08,23,04,02,11.00
2016,08,23,04,03,11.00
2016,08,23,04,04,11.00
2016,08,23,04,05,11.00
2016,08,23,04,06,11.00
2016,08,23,04,07,11.00
2016,08,23,04,08,11.00
2016,08,23,04,09,11.10
2016,08,23,04,10,11.10
2016,08,23,04,11,11.10
2016,08,23,04,12,11.10
2016,08,23,04,13,11.00
2016,08,23,04,14,11.00
2016,08,23,04,15,11.00
2016,08,23,04,16,11.00
2016,08,23,04,17,10.90
2016,08,23,04,18,10.90
2016,08,23,04,19,10.90
2016,08,23,04,20,10.90
2016,08,23,04,21,10.90
2016,08,23,04,22,10.90
2016,08,23,04,23,10.90
2016,08,23,04,24,10.90
2016,08,23,04,25,10.90
2016,08,23,04,26,10.90
2016,08,23,04,27,10.80
2016,08,23,04,28,10.80
2016,08,23,04,29,10.80
2016,08,23,04,30,10.80
2016,08,23,04,31,10.70
2016,08,23,04,32,10.70
2016,08,23,04,33,10.70
2016,08,23,04,34,10.60
2016,08,23,04,35,10.60
2016,08,23,04,36,10.60
2016,08,23,04,37,10.60
2016,08,23,04,38,10.50
2016,08,23,04,39,10.60
2016,08,23,04,40,10.60
2016,08,23,04,41,10.60
2016,08,23,04,42,10.60
2016,08,23,04,43,10.60
2016,08,23,04,44,10.50
2016,08,23,04,45,10.50
2016,08,23,04,46,10.40
2016,08,23,04,47,10.40
2016,08,23,04,48,10.40
2016,08,23,04,49,10.40
2016,08,23,04,50,10.40
2016,08,23,04,51,10.40
2016,08,23,04,52,10.40
2016,08,23,04,53,10.40
2016,08,23,04,54,10.30
2016,08,23,04,55,10.30
2016,08,23,04,56,10.30
2016,08,23,04,57,10.30
2016,08,23,04,58,10.30
2016,08,23,04,59,10.30
2016,08,23,05,00,10.30
2016,08,23,05,01,10.30
2016,08,23,05,02,10.30
2016,08,23,05,03,10.30
2016,08,23,05,04,10.30
2016,08,23,05,05,10.30
2016,08,23,05,06,10.40
2016,08,23,05,07,10.40
2016,08,23,05,08,10.40
2016,08,23,05,09,10.40
2016,08,23,05,10,10.40
2016,08,23,05,11,10.50
2016,08,23,05,12,10.50
2016,08,23,05,13,10.50
2016,08,23,05,14,10.60
2016,08,23,05,15,10.60
2016,08,23,05,16,10.60
2016,08,23,05,17,10.60
2016,08,23,05,18,10.60
2016,08,23,05,19,10.60
2016,08,23,05,20,10.60
2016,08,23,05,21,10.60
2016,08,23,05,22,10.60
2016,08,23,05,23,10.60
2016,08,23,05,24,10.70
2016,08,23,05,25,10.70
2016,08,23,05,26,10.70
2016,08,23,05,27,10.70
2016,08,23,05,28,10.70
2016,08,23,05,29,10.70
2016,08,23,05,30,10.70
2016,08,23,05,31,10.70
2016,08,23,05,32,10.70
2016,08,23,05,33,10.70
2016,08,23,05,34,10.70
2016,08,23,05,35,10.70
2016,08,23,05,36,10.70
2016,08,23,05,37,10.70
2016,08,23,05,38,10.70
2016,08,23,05,39,10.70
2016,08,23,05,40,10.80
2016,08,23,05,41,10.80
2016,08,23,05,42,10.80
2016,08,23,05,43,10.80
2016,08,23,05,44,10.80
2016,08,23,05,45,10.90
2016,08,23,05,46,10.90
2016,08,23,05,47,10.90
2016,08,23,05,48,10.90
2016,08,23,05,49,10.90
2016,08,23,05,50,10.90
2016,08,23,05,51,10.90
2016,08,23,05,52,10.90
2016,08,23,05,53,10.90
2016,08,23,05,54,11.00
2016,08,23,05,55,11.00
2016,08,23,05,56,11.00
2016,08,23,05,57,11.10
2016,08,23,05,58,11.10
2016,08,23,05,59,11.10
2016,08,23,06,00,11.10
2016,08,23,06,01,11.10
2016,08,23,06,02,11.10
2016,08,23,06,03,11.10
2016,08,23,06,04,11.00
2016,08,23,06,05,11.00
2016,08,23,06,06,11.00
2016,08,23,06,07,11.00
2016,08,23,06,08,11.00
2016,08,23,06,09,10.90
2016,08,23,06,10,10.90
2016,08,23,06,11,10.90
2016,08,23,06,12,10.90
2016,08,23,06,13,10.90
2016,08,23,06,14,10.90
2016,08,23,06,15,11.00
2016,08,23,06,16,11.00
2016,08,23,06,17,11.00
2016,08,23,06,18,11.00
2016,08,23,06,19,11.10
2016,08,23,06,20,11.10
2016,08,23,06,21,11.10
2016,08,23,06,22,11.10
2016,08,23,06,23,11.10
2016,08,23,06,24,11.10
2016,08,23,06,25,11.20
2016,08,23,06,26,11.20
2016,08,23,06,27,11.20
2016,08,23,06,28,11.20
2016,08,23,06,29,11.20
2016,08,23,06,30,11.20
2016,08,23,06,31,11.20
2016,08,23,06,32,11.20
2016,08,23,06,33,11.20
2016,08,23,06,34,11.20
2016,08,23,06,35,11.20
2016,08,23,06,36,11.20
2016,08,23,06,37,11.20
2016,08,23,06,38,11.20
2016,08,23,06,39,11.20
2016,08,23,06,40,11.20
2016,08,23,06,41,11.20
2016,08,23,06,42,11.20
2016,08,23,06,43,11.20
2016,08,23,06,44,11.30
2016,08,23,06,45,11.30
2016,08,23,06,46,11.30
2016,08,23,06,47,11.40
2016,08,23,06,48,11.40
2016,08,23,06,49,11.40
2016,08,23,06,50,11.50
2016,08,23,06,51,11.60
2016,08,23,06,52,11.60
2016,08,23,06,53,11.70
2016,08,23,06,54,11.70
2016,08,23,06,55,11.80
2016,08,23,06,56,11.80
2016,08,23,06,57,11.90
2016,08,23,06,58,11.90
2016,08,23,06,59,11.90
2016,08,23,07,00,12.00
2016,08,23,07,01,12.00
2016,08,23,07,02,12.10
2016,08,23,07,03,12.10
2016,08,23,07,04,12.20
2016,08,23,07,05,12.20
2016,08,23,07,06,12.20
2016,08,23,07,07,12.20
2016,08,23,07,08,12.20
2016,08,23,07,09,12.30
2016,08,23,07,10,12.30
2016,08,23,07,11,12.30
2016,08,23,07,12,12.30
2016,08,23,07,13,12.40
2016,08,23,07,14,12.40
2016,08,23,07,15,12.50
2016,08,23,07,16,12.50
2016,08,23,07,17,12.60
2016,08,23,07,18,12.60
2016,08,23,07,19,12.60
2016,08,23,07,20,12.70
2016,08,23,07,21,12.70
2016,08,23,07,22,12.70
2016,08,23,07,23,12.80
2016,08,23,07,24,12.80
2016,08,23,07,25,12.80
2016,08,23,07,26,12.90
2016,08,23,07,27,13.00
2016,08,23,07,28,13.00
2016,08,23,07,29,13.10
2016,08,23,07,30,13.10
2016,08,23,07,31,13.20
2016,08,23,07,32,13.20
2016,08,23,07,33,13.40
2016,08,23,07,34,13.50
2016,08,23,07,35,13.60
2016,08,23,07,36,13.70
2016,08,23,07,37,13.80
2016,08,23,07,38,13.90
2016,08,23,07,39,14.00
2016,08,23,07,40,14.10
2016,08,23,07,41,14.20
2016,08,23,07,42,14.30
2016,08,23,07,43,14.40
2016,08,23,07,44,14.60
2016,08,23,07,45,14.70
2016,08,23,07,46,14.80
2016,08,23,07,47,15.00
2016,08,23,07,48,15.10
2016,08,23,07,49,15.30
2016,08,23,07,50,15.40
2016,08,23,07,51,15.50
2016,08,23,07,52,15.70
2016,08,23,07,53,15.90
2016,08,23,07,54,16.00
2016,08,23,07,55,16.20
2016,08,23,07,56,16.30
2016,08,23,07,57,16.30
2016,08,23,07,58,16.50
2016,08,23,07,59,16.60
2016,08,23,08,00,16.70
2016,08,23,08,01,16.70
2016,08,23,08,02,16.90
2016,08,23,08,03,17.00
2016,08,23,08,04,17.10
2016,08,23,08,05,17.10
2016,08,23,08,06,17.20
2016,08,23,08,07,17.20
2016,08,23,08,08,17.20
2016,08,23,08,09,17.20
2016,08,23,08,10,17.20
2016,08,23,08,11,17.20
2016,08,23,08,12,17.20
2016,08,23,08,13,17.20
2016,08,23,08,14,17.20
2016,08,23,08,15,17.20
2016,08,23,08,16,17.20
2016,08,23,08,17,17.20
2016,08,23,08,18,17.20
2016,08,23,08,19,17.20
2016,08,23,08,20,17.20
2016,08,23,08,21,17.20
2016,08,23,08,22,17.20
2016,08,23,08,23,17.20
2016,08,23,08,24,17.20
2016,08,23,08,25,17.20
2016,08,23,08,26,17.30
2016,08,23,08,27,17.30
2016,08,23,08,28,17.30
2016,08,23,08,29,17.30
2016,08,23,08,30,17.30
2016,08,23,08,31,17.30
2016,08,23,08,32,17.30
2016,08,23,08,33,17.30
2016,08,23,08,34,17.30
2016,08,23,08,35,17.30
2016,08,23,08,36,17.40
2016,08,23,08,37,17.40
2016,08,23,08,38,17.40
2016,08,23,08,39,17.50
2016,08,23,08,40,17.50
2016,08,23,08,41,17.50
2016,08,23,08,42,17.50
2016,08,23,08,43,17.50
2016,08,23,08,44,17.60
2016,08,23,08,45,17.60
2016,08,23,08,46,17.70
2016,08,23,08,47,17.70
2016,08,23,08,48,17.70
2016,08,23,08,49,17.70
2016,08,23,08,50,17.70
2016,08,23,08,51,17.70
2016,08,23,08,52,17.70
2016,08,23,08,53,17.70
2016,08,23,08,54,17.70
2016,08,23,08,55,17.70
2016,08,23,08,56,17.70
2016,08,23,08,57,17.70
2016,08,23,08,58,17.70
2016,08,23,08,59,17.80
2016,08,23,09,00,17.80
2016,08,23,09,01,17.90
2016,08,23,09,02,17.90
2016,08,23,09,03,17.90
2016,08,23,09,04,17.90
2016,08,23,09,05,17.90
2016,08,23,09,06,17.90
2016,08,23,09,07,18.00
2016,08,23,09,08,18.00
2016,08,23,09,09,18.00
2016,08,23,09,10,17.90
2016,08,23,09,11,17.90
2016,08,23,09,12,18.00
2016,08,23,09,13,18.00
2016,08,23,09,14,17.90
2016,08,23,09,15,17.90
2016,08,23,09,16,17.90
2016,08,23,09,17,17.90
2016,08,23,09,18,17.90
2016,08,23,09,19,17.90
2016,08,23,09,20,18.00
2016,08,23,09,21,18.00
2016,08,23,09,22,18.00
2016,08,23,09,23,18.00
2016,08,23,09,24,18.10
2016,08,23,09,25,18.20
2016,08,23,09,26,18.10
2016,08,23,09,27,18.10
2016,08,23,09,28,18.10
2016,08,23,09,29,18.10
2016,08,23,09,30,18.10
2016,08,23,09,31,18.20
2016,08,23,09,32,18.20
2016,08,23,09,33,18.30
2016,08,23,09,34,18.30
2016,08,23,09,35,18.40
2016,08,23,09,36,18.40
2016,08,23,09,37,18.30
2016,08,23,09,38,18.30
2016,08,23,09,39,18.20
2016,08,23,09,40,18.30
2016,08,23,09,41,18.40
2016,08,23,09,42,18.40
2016,08,23,09,43,18.50
2016,08,23,09,44,18.50
2016,08,23,09,45,18.50
2016,08,23,09,46,18.50
2016,08,23,09,47,18.50
2016,08,23,09,48,18.40
2016,08,23,09,49,18.50
2016,08,23,09,50,18.50
2016,08,23,09,51,18.50
2016,08,23,09,52,18.50
2016,08,23,09,53,18.50
2016,08,23,09,54,18.50
2016,08,23,09,55,18.60
2016,08,23,09,56,18.70
2016,08,23,09,57,18.80
2016,08,23,09,58,18.80
2016,08,23,09,59,18.80
2016,08,23,10,00,18.70
2016,08,23,10,01,18.70
2016,08,23,10,02,18.80
2016,08,23,10,03,18.80
2016,08,23,10,04,18.80
2016,08,23,10,05,18.90
2016,08,23,10,06,19.00
2016,08,23,10,07,19.00
2016,08,23,10,08,19.00
2016,08,23,10,09,19.10
2016,08,23,10,10,19.20
2016,08,23,10,11,19.20
2016,08,23,10,12,19.30
2016,08,23,10,13,19.30
2016,08,23,10,14,19.40
2016,08,23,10,15,19.40
2016,08,23,10,16,19.40
2016,08,23,10,17,19.30
2016,08,23,10,18,19.30
2016,08,23,10,19,19.30
2016,08,23,10,20,19.30
2016,08,23,10,21,19.30
2016,08,23,10,22,19.30
2016,08,23,10,23,19.30
2016,08,23,10,24,19.30
2016,08,23,10,25,19.20
2016,08,23,10,26,19.10
2016,08,23,10,27,19.10
2016,08,23,10,28,19.10
2016,08,23,10,29,19.10
2016,08,23,10,30,19.00
2016,08,23,10,31,18.90
2016,08,23,10,32,19.00
2016,08,23,10,33,19.00
2016,08,23,10,34,19.10
2016,08,23,10,35,19.00
2016,08,23,10,36,19.00
2016,08,23,10,37,19.00
2016,08,23,10,38,19.00
2016,08,23,10,39,18.90
2016,08,23,10,40,18.80
2016,08,23,10,41,18.80
2016,08,23,10,42,18.80
2016,08,23,10,43,19.00
2016,08,23,10,44,19.00
2016,08,23,10,45,19.10
2016,08,23,10,46,19.10
2016,08,23,10,47,19.10
2016,08,23,10,48,19.00
2016,08,23,10,49,19.00
2016,08,23,10,50,18.90
2016,08,23,10,51,18.80
2016,08,23,10,52,18.80
2016,08,23,10,53,18.90
2016,08,23,10,54,19.00
2016,08,23,10,55,19.00
2016,08,23,10,56,19.10
2016,08,23,10,57,19.10
2016,08,23,10,58,19.20
2016,08,23,10,59,19.20
2016,08,23,11,00,19.20
2016,08,23,11,01,19.30
2016,08,23,11,02,19.30
2016,08,23,11,03,19.30
2016,08,23,11,04,19.30
2016,08,23,11,05,19.30
2016,08,23,11,06,19.20
2016,08,23,11,07,19.20
2016,08,23,11,08,19.10
2016,08,23,11,09,19.20
2016,08,23,11,10,19.30
2016,08,23,11,11,19.30
2016,08,23,11,12,19.40
2016,08,23,11,13,19.40
2016,08,23,11,14,19.50
2016,08,23,11,15,19.60
2016,08,23,11,16,19.70
2016,08,23,11,17,19.80
2016,08,23,11,18,20.00
2016,08,23,11,19,20.00
2016,08,23,11,20,20.10
2016,08,23,11,21,20.10
2016,08,23,11,22,20.20
2016,08,23,11,23,20.20
2016,08,23,11,24,20.20
2016,08,23,11,25,20.30
2016,08,23,11,26,20.30
2016,08,23,11,27,20.20
2016,08,23,11,28,20.10
2016,08,23,11,29,20.10
2016,08,23,11,30,20.10
2016,08,23,11,31,20.20
2016,08,23,11,32,20.30
2016,08,23,11,33,20.40
2016,08,23,11,34,20.40
2016,08,23,11,35,20.50
2016,08,23,11,36,20.60
2016,08,23,11,37,20.70
2016,08,23,11,38,20.80
2016,08,23,11,39,20.80
2016,08,23,11,40,20.80
2016,08,23,11,41,20.90
2016,08,23,11,42,20.90
2016,08,23,11,43,21.00
2016,08,23,11,44,21.00
2016,08,23,11,45,20.80
2016,08,23,11,46,20.70
2016,08,23,11,47,20.60
2016,08,23,11,48,20.40
2016,08,23,11,49,20.30
2016,08,23,11,50,20.20
2016,08,23,11,51,20.10
2016,08,23,11,52,20.10
2016,08,23,11,53,20.10
2016,08,23,11,54,20.00
2016,08,23,11,55,20.00
2016,08,23,11,56,19.90
2016,08,23,11,57,19.90
2016,08,23,11,58,19.90
2016,08,23,11,59,20.00
2016,08,23,12,00,19.90
2016,08,23,12,01,20.00
2016,08,23,12,02,20.00
2016,08,23,12,03,20.00
2016,08,23,12,04,20.00
2016,08,23,12,05,20.00
2016,08,23,12,06,20.10
2016,08,23,12,07,20.20
2016,08,23,12,08,20.30
2016,08,23,12,09,20.30
2016,08,23,12,10,20.20
2016,08,23,12,11,20.20
2016,08,23,12,12,20.30
2016,08,23,12,13,20.30
2016,08,23,12,14,20.30
2016,08,23,12,15,20.20
2016,08,23,12,16,20.10
2016,08,23,12,17,20.10
2016,08,23,12,18,20.10
2016,08,23,12,19,20.20
2016,08,23,12,20,20.20
2016,08,23,12,21,20.30
2016,08,23,12,22,20.30
2016,08,23,12,23,20.30
2016,08,23,12,24,20.40
2016,08,23,12,25,20.50
2016,08,23,12,26,20.70
2016,08,23,12,27,20.70
2016,08,23,12,28,20.70
2016,08,23,12,29,20.60
2016,08,23,12,30,20.50
2016,08,23,12,31,20.50
2016,08,23,12,32,20.60
2016,08,23,12,33,20.60
2016,08,23,12,34,20.50
2016,08,23,12,35,20.40
2016,08,23,12,36,20.30
2016,08,23,12,37,20.30
2016,08,23,12,38,20.30
2016,08,23,12,39,20.30
2016,08,23,12,40,20.40
2016,08,23,12,41,20.40
2016,08,23,12,42,20.40
2016,08,23,12,43,20.40
2016,08,23,12,44,20.50
2016,08,23,12,45,20.60
2016,08,23,12,46,20.60
2016,08,23,12,47,20.50
2016,08,23,12,48,20.40
2016,08,23,12,49,20.40
2016,08,23,12,50,20.30
2016,08,23,12,51,20.30
2016,08,23,12,52,20.50
2016,08,23,12,53,20.60
2016,08,23,12,54,20.80
2016,08,23,12,55,20.80
2016,08,23,12,56,20.80
2016,08,23,12,57,20.70
2016,08,23,12,58,20.60
2016,08,23,12,59,20.50
2016,08,23,13,00,20.50
2016,08,23,13,01,20.50
2016,08,23,13,02,20.60
2016,08,23,13,03,20.60
2016,08,23,13,04,20.60
2016,08,23,13,05,20.60
2016,08,23,13,06,20.50
2016,08,23,13,07,20.60
2016,08,23,13,08,20.60
2016,08,23,13,09,20.70
2016,08,23,13,10,20.70
2016,08,23,13,11,20.80
2016,08,23,13,12,21.00
2016,08,23,13,13,21.10
2016,08,23,13,14,21.30
2016,08,23,13,15,21.50
2016,08,23,13,16,21.60
2016,08,23,13,17,21.70
2016,08,23,13,18,21.90
2016,08,23,13,19,22.00
2016,08,23,13,20,22.20
2016,08,23,13,21,22.20
2016,08,23,13,22,22.20
2016,08,23,13,23,22.20
2016,08,23,13,24,22.20
2016,08,23,13,25,22.30
2016,08,23,13,26,22.20
2016,08,23,13,27,22.10
2016,08,23,13,28,22.00
2016,08,23,13,29,21.90
2016,08,23,13,30,21.90
2016,08,23,13,31,21.90
2016,08,23,13,32,21.90
2016,08,23,13,33,21.90
2016,08,23,13,34,21.90
2016,08,23,13,35,22.00
2016,08,23,13,36,21.90
2016,08,23,13,37,21.90
2016,08,23,13,38,21.90
2016,08,23,13,39,21.90
2016,08,23,13,40,22.00
2016,08,23,13,41,22.00
2016,08,23,13,42,21.90
2016,08,23,13,43,21.90
2016,08,23,13,44,22.00
2016,08,23,13,45,22.10
2016,08,23,13,46,22.10
2016,08,23,13,47,22.10
2016,08,23,13,48,22.10
2016,08,23,13,49,22.10
2016,08,23,13,50,22.30
2016,08,23,13,51,22.40
2016,08,23,13,52,22.50
2016,08,23,13,53,22.60
2016,08,23,13,54,22.60
2016,08,23,13,55,22.50
2016,08,23,13,56,22.40
2016,08,23,13,57,22.30
2016,08,23,13,58,22.30
2016,08,23,13,59,22.40
2016,08,23,14,00,22.50
2016,08,23,14,01,22.50
2016,08,23,14,02,22.50
2016,08,23,14,03,22.40
2016,08,23,14,04,22.40
2016,08,23,14,05,22.40
2016,08,23,14,06,22.40
2016,08,23,14,07,22.50
2016,08,23,14,08,22.50
2016,08,23,14,09,22.60
2016,08,23,14,10,22.60
2016,08,23,14,11,22.60
2016,08,23,14,12,22.70
2016,08,23,14,13,22.70
2016,08,23,14,14,22.70
2016,08,23,14,15,22.70
2016,08,23,14,16,22.80
2016,08,23,14,17,22.80
2016,08,23,14,18,22.70
2016,08,23,14,19,22.60
2016,08,23,14,20,22.70
2016,08,23,14,21,22.80
2016,08,23,14,22,22.90
2016,08,23,14,23,22.90
2016,08,23,14,24,22.90
2016,08,23,14,25,22.80
2016,08,23,14,26,22.90
2016,08,23,14,27,22.90
2016,08,23,14,28,22.90
2016,08,23,14,29,22.90
2016,08,23,14,30,23.00
2016,08,23,14,31,23.20
2016,08,23,14,32,23.30
2016,08,23,14,33,23.20
2016,08,23,14,34,23.10
2016,08,23,14,35,23.10
2016,08,23,14,36,22.90
2016,08,23,14,37,22.90
2016,08,23,14,38,22.90
2016,08,23,14,39,22.90
2016,08,23,14,40,23.00
2016,08,23,14,41,23.10
2016,08,23,14,42,23.20
2016,08,23,14,43,23.30
2016,08,23,14,44,23.40
2016,08,23,14,45,23.50
2016,08,23,14,46,23.40
2016,08,23,14,47,23.30
2016,08,23,14,48,23.40
2016,08,23,14,49,23.50
2016,08,23,14,50,23.60
2016,08,23,14,51,23.50
2016,08,23,14,52,23.40
2016,08,23,14,53,23.30
2016,08,23,14,54,23.30
2016,08,23,14,55,23.20
2016,08,23,14,56,23.20
2016,08,23,14,57,23.20
2016,08,23,14,58,23.20
2016,08,23,14,59,23.30
2016,08,23,15,00,23.30
2016,08,23,15,01,23.30
2016,08,23,15,02,23.30
2016,08,23,15,03,23.30
2016,08,23,15,04,23.40
2016,08,23,15,05,23.40
2016,08,23,15,06,23.60
2016,08,23,15,07,23.70
2016,08,23,15,08,23.90
2016,08,23,15,09,24.00
2016,08,23,15,10,24.00
2016,08,23,15,11,24.00
2016,08,23,15,12,23.90
2016,08,23,15,13,23.90
2016,08,23,15,14,23.90
2016,08,23,15,15,23.90
2016,08,23,15,16,24.00
2016,08,23,15,17,23.90
2016,08,23,15,18,23.90
2016,08,23,15,19,23.80
2016,08,23,15,20,23.80
2016,08,23,15,21,23.70
2016,08,23,15,22,23.70
2016,08,23,15,23,23.70
2016,08,23,15,24,23.70
2016,08,23,15,25,23.80
2016,08,23,15,26,23.80
2016,08,23,15,27,23.90
2016,08,23,15,28,24.00
2016,08,23,15,29,24.10
2016,08,23,15,30,24.30
2016,08,23,15,31,24.40
2016,08,23,15,32,24.50
2016,08,23,15,33,24.50
2016,08,23,15,34,24.60
2016,08,23,15,35,24.60
2016,08,23,15,36,24.50
2016,08,23,15,37,24.60
2016,08,23,15,38,24.40
2016,08,23,15,39,24.30
2016,08,23,15,40,24.20
2016,08,23,15,41,24.10
2016,08,23,15,42,24.10
2016,08,23,15,43,24.10
2016,08,23,15,44,24.10
2016,08,23,15,45,24.20
2016,08,23,15,46,24.20
2016,08,23,15,47,24.30
2016,08,23,15,48,24.40
2016,08,23,15,49,24.50
2016,08,23,15,50,24.60
2016,08,23,15,51,24.70
2016,08,23,15,52,24.70
2016,08,23,15,53,24.70
2016,08,23,15,54,24.60
2016,08,23,15,55,24.60
2016,08,23,15,56,24.60
2016,08,23,15,57,24.60
2016,08,23,15,58,24.70
2016,08,23,15,59,24.70
2016,08,23,16,00,24.70
2016,08,23,16,01,24.60
2016,08,23,16,02,24.60
2016,08,23,16,03,24.60
2016,08,23,16,04,24.60
2016,08,23,16,05,24.60
2016,08,23,16,06,24.60
2016,08,23,16,07,24.60
2016,08,23,16,08,24.60
2016,08,23,16,09,24.60
2016,08,23,16,10,24.60
2016,08,23,16,11,24.60
2016,08,23,16,12,24.70
2016,08,23,16,13,24.70
2016,08,23,16,14,24.70
2016,08,23,16,15,24.70
2016,08,23,16,16,24.70
2016,08,23,16,17,24.60
2016,08,23,16,18,24.60
2016,08,23,16,19,24.50
2016,08,23,16,20,24.50
2016,08,23,16,21,24.60
2016,08,23,16,22,24.60
2016,08,23,16,23,24.50
2016,08,23,16,24,24.30
2016,08,23,16,25,24.20
2016,08,23,16,26,24.20
2016,08,23,16,27,24.20
2016,08,23,16,28,24.20
2016,08,23,16,29,24.20
2016,08,23,16,30,24.20
2016,08,23,16,31,24.10
2016,08,23,16,32,24.00
2016,08,23,16,33,24.00
2016,08,23,16,34,24.00
2016,08,23,16,35,24.00
2016,08,23,16,36,24.00
2016,08,23,16,37,23.90
2016,08,23,16,38,23.70
2016,08,23,16,39,23.70
2016,08,23,16,40,23.70
2016,08,23,16,41,23.70
2016,08,23,16,42,23.70
2016,08,23,16,43,23.70
2016,08,23,16,44,23.50
2016,08,23,16,45,23.30
2016,08,23,16,46,23.20
2016,08,23,16,47,23.20
2016,08,23,16,48,23.20
2016,08,23,16,49,23.20
2016,08,23,16,50,23.30
2016,08,23,16,51,23.20
2016,08,23,16,52,23.30
2016,08,23,16,53,23.30
2016,08,23,16,54,23.30
2016,08,23,16,55,23.30
2016,08,23,16,56,23.20
2016,08,23,16,57,23.10
2016,08,23,16,58,23.00
2016,08,23,16,59,23.00
2016,08,23,17,00,23.00
2016,08,23,17,01,23.00
2016,08,23,17,02,23.00
2016,08,23,17,03,22.90
2016,08,23,17,04,22.90
2016,08,23,17,05,22.90
2016,08,23,17,06,22.90
2016,08,23,17,07,23.00
2016,08,23,17,08,23.00
2016,08,23,17,09,23.10
2016,08,23,17,10,23.10
2016,08,23,17,11,23.10
2016,08,23,17,12,23.10
2016,08,23,17,13,23.20
2016,08,23,17,14,23.20
2016,08,23,17,15,23.20
2016,08,23,17,16,23.20
2016,08,23,17,17,23.20
2016,08,23,17,18,23.20
2016,08,23,17,19,23.10